Regional Weather Roundup
Issued by NWS

Home | Current Version | Previous Version | Text Only | Print | Product List | Glossary On
Versions: 1 2 3 4 5 6 7 8 9 10 11 12 13 14 15 16 17 18 19 20 21 22 23 24 25 26 27 28 29 30 31 32 33 34 35 36 37 38 39 40 41 42 43 44 45 46 47 48 49 50
000
ASUS45 KCYS 041110
RWRWY

WYOMING REGIONAL WEATHER ROUNDUP
NATIONAL WEATHER SERVICE CHEYENNE WY
500 AM MDT TUE AUG 04 2015

NOTE:  "FAIR" INDICATES FEW OR NO CLOUDS BELOW 12,000 FEET
WITH NO SIGNIFICANT WEATHER AND/OR OBSTRUCTIONS TO VISIBILITY.

WYZ001-041200-
YELLOWSTONE NATIONAL PARK

CITY           SKY/WX    TMP DP  RH WIND       PRES   REMARKS
LK YELLOWSTONE   N/A     49  47  93 CALM      30.26R
W YELLOWSTONE  NOT AVBL

$$
WYZ002>013-054>058-071-098>099-041200-
NORTHERN WYOMING

CITY           SKY/WX    TMP DP  RH WIND       PRES   REMARKS
JACKSON        NOT AVBL
CODY           CLOUDY    61  48  63 CALM      30.00R
GREYBULL       FAIR      65  49  56 S5        29.92S
WORLAND        FAIR      62  53  72 SE12      29.94R
SHERIDAN       FAIR      61  49  64 W5        29.91R
BUFFALO        FAIR      63  48  58 CALM      29.98S
GILLETTE       FAIR      57  50  77 CALM      29.94S
HULETT         FAIR      63  52  67 CALM      29.96S
NEWCASTLE      FAIR      61  54  77 E6        29.95R

$$
WYZ014>020-022>026-101>103-041200-
CENTRAL WYOMING

CITY           SKY/WX    TMP DP  RH WIND       PRES   REMARKS
BIG PINEY      FAIR      54  49  83 NW9       30.17S
PINEDALE       FAIR      52  52 100 W10       30.17R
DUBOIS         FAIR      55  45  67 W18G25    30.14R
LANDER         CLOUDY    58  55  90 S5        30.02F
RIVERTON       FAIR      57  55  93 SW9       30.03S
CASPER         CLOUDY    61  54  77 SW12      30.02S
DOUGLAS        FAIR      54  47  77 NW3       30.01S

$$
WYZ021-027>030-104>119-041200-
SOUTHERN WYOMING

CITY           SKY/WX    TMP DP  RH WIND       PRES   REMARKS
EVANSTON       FAIR      48  46  93 S8        30.23S
KEMMERER       CLOUDY    50  50 100 W12       30.21S FOG
FORT BRIDGER   SUNNY     52  52 100 W12       30.25R
ROCK SPRINGS   FAIR      52  49  89 W15       30.17R
DIXON          CLOUDY    58  49  71 S6        30.20S
RAWLINS        LGT RAIN  54  51  90 SW21G29   30.14S
SARATOGA       CLOUDY    57  46  67 SW12G18   30.18S
LARAMIE        CLOUDY    55  48  77 SW10      30.15F
CHEYENNE       FAIR      64  46  52 W14G25    30.08R
TORRINGTON     FAIR      59  51  75 N6        29.95R
PINE BLUFFS    FAIR      54  48  82 CALM      30.04S

$$



USA.gov is the U.S. government's official web portal to all federal, state and local government web resources and services.